Lexington Weather

Lexington, Massachusetts, USA

46°F
10/22/2019 2:12am 
  • Lexington Conditions: Few Clouds
  • Temperature: 46.4°F / 8.0°CWarmer 0.9°F than last hour.
  • Dew Point: 44.8°FIncreased 1.8°Fsince last hour.
  • Relative Humidity: 94%Increased 3.0% since last hour.
  • Wind: Calm, 10-min avg: Calm, gust: None
  • Barometer: 30.12 in Steady
  • Visibility: 10 miles
  • Rain Today: 0.00 in
  •   

Regional Weather Roundup
for Boston, MA

        
000
ASUS41 KBOX 191701
RWRBOX

REGIONAL WEATHER ROUNDUP
NATIONAL WEATHER SERVICE BOSTON/NORTON MA
100 PM EDT SAT OCT 19 2019

NOTE:  "FAIR" INDICATES FEW OR NO CLOUDS BELOW 12,000 FEET WITH NO 
SIGNIFICANT WEATHER AND/OR OBSTRUCTIONS TO VISIBILITY.

MAZALL-191800-
EASTERN MASSACHUSETTS
  
CITY           SKY/WX    TMP DP  RH WIND       PRES   REMARKS
BOSTON         FAIR      57  34  41 W8        30.00F                  
BEVERLY        FAIR      55  36  48 VRB6      29.98F                  
LAWRENCE       FAIR      55  35  47 NW8       30.01S                  
BEDFORD        FAIR      59  35  40 VRB6      29.99F                  
BLUE HILL      NOT AVBL                                               
NORWOOD        FAIR      57  35  43 VRB5      30.00F                  
MARSHFIELD     NOT AVBL                                               
PLYMOUTH       FAIR      54  36  50 NW6       30.00F                  
TAUNTON        FAIR      57  35  43 VRB3      30.00F                  
NEW BEDFORD    FAIR      56  36  47 W8        30.00F                  
$$

MAZALL-191800-
CAPE COD AND THE ISLANDS
  
CITY           SKY/WX    TMP DP  RH WIND       PRES   REMARKS
FALMOUTH       SUNNY     54  36  50 W12       30.01S                  
HYANNIS        FAIR      55  37  50 N7        29.99F                  
CHATHAM        NOT AVBL                                               
PROVINCETOWN   FAIR      52  40  63 NW8         N/A                   
NANTUCKET      FAIR      54  40  59 NW10      30.02S                  
MARTHAS VNYRD  FAIR      55  35  47 W7        30.01F                  
$$
 
MAZALL-191800-
CENTRAL AND WESTERN MASSACHUSETTS
  
CITY           SKY/WX    TMP DP  RH WIND       PRES   REMARKS
WORCESTER      FAIR      52  34  50 NW10      30.00F                  
FITCHBURG      FAIR      57  33  40 NW8       30.01F                  
ORANGE         FAIR      55  31  39 VRB5G16   30.01F                  
SPRINGFIELD    NOT AVBL                                               
WESTFIELD      FAIR      58  34  40 CALM      30.01F                  
NORTH ADAMS    FAIR      51  33  50 VRB5      30.03F                  
PITTSFIELD     FAIR      52  34  50 NW8       30.01F                  
$$
 
RIZALL-191800-
RHODE ISLAND
  
CITY           SKY/WX    TMP DP  RH WIND       PRES   REMARKS
PROVIDENCE     FAIR      55  36  48 NW7       30.02F                  
NEWPORT        FAIR      55  36  48 NW6       30.01F                  
BLOCK ISLAND   FAIR      52  36  54 W10       30.04F                  
SMITHFIELD     FAIR     N/A N/A N/A W6        30.01F                  
WESTERLY       FAIR      57  38  48 SW8       30.03F                  
$$
 
CTZALL-191800-
CONNECTICUT
  
CITY           SKY/WX    TMP DP  RH WIND       PRES   REMARKS
BRADLEY INTL   FAIR      59  35  40 VRB3      30.01F                  
HARTFORD       FAIR      57  37  47 W6        30.03F                  
BRIDGEPORT     FAIR      56  39  53 SW12      30.05F                  
DANBURY        FAIR      55  35  47 W7        30.06F                  
GROTON         FAIR      55  40  56 SW12      30.03F                  
NEW HAVEN      FAIR      58  39  49 SW5       30.05F                  
CHESTER        FAIR      55  36  47 VRB5      30.03F                  
MERIDEN        FAIR      57  36  45 W8        30.03F                  
WILLIMANTIC    FAIR      55  35  47 VRB3      30.03F                  
OXFORD         FAIR      55  36  48 NW7       30.04F                  
$$

MEZ002-015-021-024-NHZ003-005-008-011-012-014-VTZ005-008-191800-
NORTHERN NEW ENGLAND
  
CITY           SKY/WX    TMP DP  RH WIND       PRES   REMARKS
PORTLAND ME    FAIR      56  34  43 NW13      29.96F                  
BANGOR ME      FAIR      54  34  46 NW14G21   29.89F                  
CONCORD NH     FAIR      54  32  43 NW10      29.99F                  
MANCHESTER NH  FAIR      56  32  40 NW9       29.98F                  
NASHUA NH      FAIR      56  32  40 VRB7      30.00F                  
PORTSMOUTH NH  NOT AVBL                                               
JAFFREY NH     FAIR      52  31  44 VRB5      29.99F                  
KEENE NH       FAIR      54  33  45 VRB7      30.00F                  
BURLINGTON VT  FAIR      50  31  48 VRB5      30.06S                  
MT. WASHINGTON PTSUNNY   28  18  64 NW39        N/A  WCI  11          
$$

NYZ052-076-191800-
EASTERN NEW YORK
  
CITY           SKY/WX    TMP DP  RH WIND       PRES   REMARKS
ALBANY         FAIR      54  35  48 VRB3      30.06F                  
NEW YORK CITY  FAIR      57  35  43 CALM      30.06F                  
$$
 
ANZALL-191800-
MARINE OBSERVATIONS
  
STATION/POSITION TIME  TEMP    WIND        PRES    VSBY  WAVE
                       AIR SEA DIR/SP/G                  HT/PER
                 (UTC) (F)     (DEG/KT/KT) (MB)    (MI)  (FT/S)
BOSTON BUOY      1550   49 56  300/  6/  8 1015.6          2/ 3
BUZZARDS BAY     1600   50     290/ 10/ 12 1017.6R
NANTUCKET SOUND  1640      56                N/A           1
MASS BAY-STELLWA 1604   50 55  310/  4/  6 1015.4S  1 7/8  1/ 3
ISLE OF SHOALS   1600   50     270/  7/  9 1015.0F
S OF BLOCK IS    1630      60                N/A           3/ 4
$$

......................KEY.........................
  SKY/WX - SKY CONDITION/PRESENT WEATHER
  TMP    - TEMPERATURE IN FAHRENHEIT
  DWPT   - DEWPOINT IN FAHRENHEIT
  RH     - RELATIVE HUMIDITY IN PERCENT
  WIND   - DIRECTION AND SPEED IN MPH
  PRES   - MEAN SEA LEVEL PRESSURE IN INCHES OF HG
  WCI    - WIND CHILL INDEX
  VSB    - VISIBILITY IN MILES
  HX     - HEAT INDEX
  TC     - TEMPERATURE IN CELSIUS
  VRB    - VARIABLE WIND DIRECTION
  N/A    - NOT AVAILABLE
  
      

Other recent Regional Weather Roundups

Tue Oct 22, 2:10am

Tue Oct 22, 2:00am

Tue Oct 22, 1:10am

Tue Oct 22, 1:00am

Tue Oct 22, 12:10am

Tue Oct 22, 12:00am

Mon Oct 21, 11:10pm

Mon Oct 21, 11:00pm

Mon Oct 21, 10:10pm

Mon Oct 21, 10:01pm

Mon Oct 21, 9:10pm

Mon Oct 21, 9:00pm

Mon Oct 21, 8:10pm

Mon Oct 21, 8:00pm

Mon Oct 21, 7:10pm

Mon Oct 21, 7:01pm

Mon Oct 21, 6:10pm

Mon Oct 21, 6:01pm

Mon Oct 21, 5:10pm

Mon Oct 21, 5:01pm

Mon Oct 21, 4:10pm

Mon Oct 21, 4:00pm

Mon Oct 21, 3:10pm

Mon Oct 21, 3:01pm

Mon Oct 21, 2:10pm

Mon Oct 21, 2:00pm

Mon Oct 21, 1:10pm

Mon Oct 21, 1:01pm

Mon Oct 21, 12:10pm

Mon Oct 21, 12:00pm

Mon Oct 21, 11:10am

Mon Oct 21, 11:00am

Mon Oct 21, 10:10am

Mon Oct 21, 10:00am

Mon Oct 21, 9:10am

Mon Oct 21, 9:00am

Mon Oct 21, 7:10am

Mon Oct 21, 7:00am

Mon Oct 21, 6:10am

Mon Oct 21, 6:00am

Mon Oct 21, 5:10am

Mon Oct 21, 5:00am

Mon Oct 21, 4:10am

Mon Oct 21, 4:00am

Mon Oct 21, 3:10am

Mon Oct 21, 3:00am

Mon Oct 21, 2:10am

Mon Oct 21, 2:01am

Mon Oct 21, 1:10am

Mon Oct 21, 1:00am

Mon Oct 21, 12:10am

Mon Oct 21, 12:00am

Sun Oct 20, 11:10pm

Sun Oct 20, 11:00pm

Sun Oct 20, 10:10pm

Sun Oct 20, 10:00pm

Sun Oct 20, 9:10pm

Sun Oct 20, 9:01pm

Sun Oct 20, 8:10pm

Sun Oct 20, 8:00pm

Sun Oct 20, 7:10pm

Sun Oct 20, 7:01pm

Sun Oct 20, 6:10pm

Sun Oct 20, 6:00pm

Sun Oct 20, 5:10pm

Sun Oct 20, 5:00pm

Sun Oct 20, 4:10pm

Sun Oct 20, 4:00pm

Sun Oct 20, 3:10pm

Sun Oct 20, 3:00pm

Sun Oct 20, 2:10pm

Sun Oct 20, 2:01pm

Sun Oct 20, 1:10pm

Sun Oct 20, 1:01pm

Sun Oct 20, 12:10pm

Sun Oct 20, 12:00pm

Sun Oct 20, 11:10am

Sun Oct 20, 11:00am

Sun Oct 20, 10:10am

Sun Oct 20, 10:00am

Sun Oct 20, 9:10am

Sun Oct 20, 9:00am

Sun Oct 20, 8:10am

Sun Oct 20, 8:00am

Sun Oct 20, 7:10am

Sun Oct 20, 7:00am

Sun Oct 20, 6:10am

Sun Oct 20, 6:00am

Sun Oct 20, 5:10am

Sun Oct 20, 5:00am

Sun Oct 20, 4:10am

Sun Oct 20, 4:00am

Sun Oct 20, 3:10am

Sun Oct 20, 3:00am

Sun Oct 20, 2:10am

Sun Oct 20, 2:00am

Sun Oct 20, 1:10am

Sun Oct 20, 1:00am

Sun Oct 20, 12:10am

Sun Oct 20, 12:00am

Sat Oct 19, 11:10pm

Sat Oct 19, 11:00pm

Sat Oct 19, 10:10pm

Sat Oct 19, 10:00pm

Sat Oct 19, 9:10pm

Sat Oct 19, 9:00pm

Sat Oct 19, 8:10pm

Sat Oct 19, 8:00pm

Sat Oct 19, 7:10pm

Sat Oct 19, 7:00pm

Sat Oct 19, 6:10pm

Sat Oct 19, 6:00pm

Sat Oct 19, 5:10pm

Sat Oct 19, 5:00pm

Sat Oct 19, 4:10pm

Sat Oct 19, 4:00pm

Sat Oct 19, 3:10pm

Sat Oct 19, 3:01pm

Sat Oct 19, 2:10pm

Sat Oct 19, 2:00pm

Sat Oct 19, 1:10pm

Sat Oct 19, 12:10pm

Sat Oct 19, 12:00pm

Sat Oct 19, 11:10am

Sat Oct 19, 11:01am

Sat Oct 19, 10:10am

Sat Oct 19, 10:00am

Sat Oct 19, 9:10am

Sat Oct 19, 9:00am

Sat Oct 19, 8:10am

Sat Oct 19, 8:00am

Sat Oct 19, 7:10am

Sat Oct 19, 7:00am

Sat Oct 19, 6:10am

Sat Oct 19, 6:00am

Sat Oct 19, 5:10am

Sat Oct 19, 5:00am

Sat Oct 19, 4:10am

Sat Oct 19, 4:00am

Sat Oct 19, 3:10am

Sat Oct 19, 3:00am

Meta data:

ID: 1517b985-1390-4253-8dbb-9ff3844cb424
Link: https://api.weather.gov/products/1517b985-1390-4253-8dbb-9ff3844cb424